DELTA 1 DEB, 10306

Orbit data source: Space-Track

DELTA 1 DEB, 10306 is space debris in LEO originally from a launch on Thu, 14 Jul 1977 UTC launched from the Air Force Eastern Test Range (AFETR). Debris objects in space refer to the collection of defunct objects orbiting the Earth. Examples of debris include non-operational satellites, rocket bodies, and fragments generated from explosions, collisions, or faulty payload assembly.

Loading next visibility...
Identifier
10306, 1977-065DC
Orbit
LEO
Country
Flag of USUS
Related business
Manufacturer
Unknown
Mission
Spacecraft
Bus & Motor
Unknown
Mass
Unknown
Launch date (UTC)
1977-07-14 (48 years ago)
Launch vehicle
Unknown
Launch site
Air Force Eastern Test Range (AFETR)
Object type
Payload
Rocket body
Debris
Shape & HBR
Unknown shape, 0.2 m
Radar Cross Section
Small (<0.1 m²)

Expand to show TLE details & history
Last TLE update: 1 day ago

TLE from 1 day ago
0 DELTA 1 DEB
1 10306U 77065DC  25303.99766618  .00006556  00000-0  16297-2 0  9999
2 10306  29.1042 230.9220 0657338  29.0796 334.4799 13.66839414359644
Epoch: 2025-10-30T23:56Z
TLE epoch observation values (Epoch: 2025-10-30T23:56:38.357Z)
Latitude
-0.00002°
Longitude
-167.78627°
Altitude
577.638 km
Speed
7.792 km/s
True Right ascension
15h 23m 41s
True Declination
0° 00' 00"
Sunlit
Object was in daylight at epoch
Visualization orbit readout
Latitude
Unknown
Longitude
Unknown
Altitude
Unknown
Speed
Unknown
Apparent Right ascension
Unknown
Apparent Declination
Unknown
Sunlit
N/A
Visualization observer readout
Local Sidereal Time
21:06:04
Azimuth
Unknown
Elevation
Unknown
Doppler factor
Unknown
Orbital elements
Apogee altitude
1,500.783 km
Perigee altitude
528.849 km
Semi-major axis
7,392.953 km
Eccentricity
0.06573
Inclination
29.1042°
RAAN
230.922°
Arg. of periapsis
29.0796°
True anomaly
330.97789°
Mean anomaly
334.4799°
Eccentric anomaly
332.75576°
Mean motion
3.41441 °/min
Orbital period
105.44 mins
BSTAR
0.0016297
Loading maneuver chart data...
Computing Atmospheric mass density...
Loading historical data...
Loading historical data...
Loading historical data...
Loading historical data...
Loading historical data...
Loading historical data...
Loading historical data...

Documentation

Showing up to 5 results
|